Location: Sands Community
(41.7944°N, 81.1022°W)
Time: 20:13:35
(UTC+00:00)

Daily predictions for brighter satellites

Satellite Brightness Start Highest point End
(mag) Time Altitude Azimuth Time Altitude Azimuth Time Altitude Azimuth
ATLAS 5 CENTAUR R/B 3.0 22:14:56 10° NW 22:20:46 67° WSW 22:27:29 10° SSE
MOS 1-B 4.4 22:17:16 10° SSE 22:23:02 79° ENE 22:28:52 10° NNW
Cosmos 2333 Rocket 2.9 22:19:25 10° SW 22:25:02 58° WNW 22:30:39 10° NNE
Cosmos 1633 4.5 22:23:29 10° NNW 22:26:45 34° W 22:30:01 10° SSW
Cosmos 372 Rocket 4.0 22:22:23 10° NNW 22:27:34 80° ENE 22:32:44 10° SSE
USA 281 4.3 22:22:57 10° E 22:27:45 22° NE 22:32:33 10° N
NOSS 0 Rocket 4.1 22:21:53 10° S 22:27:59 61° ESE 22:34:08 10° NNE
NOAA 6 4.1 22:23:27 10° SSE 22:28:37 85° ENE 22:33:48 10° NNW
COSMOS 2428 3.1 22:24:36 10° SSW 22:30:19 69° WNW 22:36:03 10° NNE
Cosmos 2298 Rocket 4.1 22:27:39 10° NNW 22:32:53 55° ENE 22:38:04 10° SE
Cosmos 1818 4.0 22:28:41 10° NNW 22:33:52 41° NE 22:39:00 10° ESE
ISS -3.7 22:31:13 10° SW 22:34:34 78° SE 22:37:56 10° ENE
Cosmos 2150 Rocket 4.1 22:29:34 10° N 22:34:37 51° ENE 22:39:36 10° SE
ERS-2 3.1 22:36:20 10° NE 22:39:29 27° E 22:42:37 10° SSE
Cosmos 1939 Rocket 4.1 22:37:14 10° ESE 22:40:03 20° ENE 22:42:53 10° NNE
Cosmos 2327 Rocket 4.5 22:34:33 10° N 22:40:40 65° E 22:46:49 10° SSE
Cosmos 2278 Rocket 2.2 22:35:39 10° NNW 22:41:17 59° ENE 22:46:52 10° SE
Cosmos 2074 Rocket 4.2 22:35:04 10° N 22:41:19 83° W 22:47:33 10° S
Cosmos 2221 3.0 22:37:03 10° SSW 22:41:22 67° W 22:45:41 10° N
CZ-4B R/B 2.1 22:40:31 10° NE 22:43:15 29° E 22:46:00 10° SSE
CSL-04 DEB 4.4 22:42:08 10° NNE 22:46:14 75° ESE 22:50:24 10° S
Cosmos 1500 Rocket 3.5 22:42:07 10° N 22:46:31 88° ENE 22:50:57 10° S
NOSS 2-1 (C) 4.4 22:42:26 10° NNW 22:47:44 77° NE 22:55:15 10° SE
TELKOM 3 3.2 22:46:10 10° SW 22:49:00 65° SSE 22:50:44 17° ENE
Cosmos 1125 Rocket 3.6 22:46:38 10° N 22:51:43 51° ENE 22:56:46 10° SE
Radarsat Rocket 4.3 22:46:25 10° SSE 22:52:18 76° WSW 22:58:44 10° NNW
Cosmos 2184 Rocket 4.4 22:46:30 10° NNW 22:52:51 71° W 22:59:09 10° S
NOSS 2-1 (D) 4.4 22:47:51 10° NW 22:53:12 83° NE 23:00:48 10° SE
ADEOS Rocket 4.3 22:48:06 10° N 22:55:33 57° WNW 23:03:05 10° SW
YAOGAN 1 4.1 22:55:22 15° ENE 22:55:42 15° ENE 22:58:08 10° NNE
Cosmos 2219 Rocket 3.7 22:54:12 10° WSW 22:59:21 35° WNW 23:04:31 10° N
USA 215 3.3 22:54:21 10° NE 23:00:57 89° SSE 23:07:30 10° SW
CZ-4B R/B 3.3 22:56:18 10° S 23:01:41 77° WSW 23:07:01 10° NNW
NOAA 12 4.2 22:56:58 10° SSE 23:02:18 82° WSW 23:07:40 10° NNW
Okean-O 3.8 22:59:12 10° ESE 23:02:30 21° ENE 23:05:49 10° NNE
Meteor 2-12 Rocket 4.5 22:57:46 10° N 23:03:51 57° ENE 23:09:51 10° SSE
AQUARIUS 4.3 22:59:28 10° S 23:03:57 82° W 23:08:28 10° NNW
Cosmos 1295 Rocket 4.4 22:58:58 10° N 23:05:08 79° E 23:11:21 10° S
SL-24 R/B - RUBIN 2 4.2 23:00:03 10° NNW 23:06:20 69° NE 23:11:52 10° SE
FengYun 1-2 T 4.2 23:00:50 10° SSE 23:06:22 77° ENE 23:11:54 10° N
H-2A R/B 4.2 23:03:00 10° SSW 23:07:05 37° W 23:11:04 10° NNW
Cosmos 2237 Rocket 2.2 23:01:47 10° SSW 23:07:25 88° WNW 23:13:05 10° NNE
COSMO-SKYMED 1 3.0 23:03:36 10° NNE 23:07:43 41° E 23:11:49 10° S
NOAA 11 4.1 23:03:58 10° SSE 23:09:21 76° ENE 23:14:48 10° N
Okean O Rocket 2.2 23:10:42 10° S 23:14:58 59° WSW 23:19:18 10° NNW
Cosmos 1933 3.7 23:12:20 10° SSE 23:16:07 40° E 23:19:07 15° NNE
SL-24 R/B 4.3 23:13:00 13° NNE 23:16:18 38° E 23:19:49 10° SSE
Cosmos 405 Rocket 4.1 23:12:57 10° NNW 23:16:40 43° W 23:20:25 10° SSW
USA 81 4.3 23:14:34 10° N 23:19:38 44° E 23:24:40 10° SSE
Sich 1 2.9 23:15:22 10° N 23:19:47 75° E 23:24:07 10° SSE
PSLV R/B 4.3 23:20:05 22° NE 23:22:14 39° E 23:26:02 10° S
Cosmos 2369 Rocket 3.9 23:19:40 10° N 23:22:06 15° NE 23:22:06 15° NE
Cosmos 1980 4.2 23:19:51 10° SW 23:25:27 60° WNW 23:31:06 10° NNE
H-2A R/B 2.9 23:25:29 26° E 23:26:22 27° ENE 23:30:43 10° N
Cosmos 1805 Rocket 4.0 23:24:23 10° NNW 23:28:48 64° W 23:33:10 10° S
Helios 1A Rocket 3.4 23:28:31 29° ESE 23:29:44 36° ENE 23:33:26 10° N
SKYMED 3 4.4 23:27:28 10° NNE 23:31:50 77° ESE 23:36:10 10° S
Cosmos 2218 Rocket 4.0 23:26:23 10° N 23:32:24 53° ENE 23:38:23 10° SSE
USA 267 3.4 23:27:58 20° ESE 23:32:28 56° NNE 23:38:49 10° NW
Cosmos 389 Rocket 2.8 23:30:15 10° SSW 23:33:39 62° WNW 23:36:46 12° N
Cosmos 1666 Rocket 3.4 23:30:32 10° N 23:34:55 69° E 23:39:20 10° SSE
Cosmos 1151 Rocket 3.0 23:30:54 10° S 23:35:06 55° E 23:37:28 24° NNE
Cosmos 773 Rocket 4.4 23:30:57 10° S 23:35:47 39° ESE 23:37:15 33° ENE
Cosmos 1782 4.2 23:33:25 10° SSE 23:35:11 22° SE 23:35:11 22° SE
Cosmos 1606 3.4 23:34:26 10° SSW 23:38:15 55° W 23:42:05 10° N
Cosmos 1328 Rocket 3.6 23:34:30 10° S 23:38:41 53° E 23:40:17 33° NE
Cosmos 783 Rocket 4.5 23:35:13 10° S 23:40:26 63° ESE 23:43:31 25° NNE
Cosmos 2366 rocket 3.9 23:38:25 10° N 23:44:36 64° E 23:50:41 10° SSE
SL-24 DEB 4.2 23:40:54 10° NNE 23:45:37 59° E 23:50:16 10° S
BREEZE-M DEB (TANK) 3.9 23:37:11 10° SW 23:47:19 46° SSE 23:48:27 38° ESE
Cosmos 2297 3.7 23:41:58 10° NNW 23:47:33 55° ENE 23:50:36 26° SE
BREEZE-M DEB (TANK) 3.5 23:45:51 10° W 23:47:24 26° NW 23:47:24 26° NW
Abrixas rocket 3.5 23:53:45 10° WNW 23:55:50 33° WSW 23:55:50 33° WSW
